| time (UTC) | temp F | wind direction | speed knots | gust knots | rain 1hr in | rain 24hr in | rain mn in | humidity % | barometer mb |
| 20260506092426 | 63 | 270 | 0.9 | 3.5 | 0.00 | 0.00 | 0.00 | 9 | 1012.8 |
| 20260506092126 | 63 | 202 | 0.9 | 2.6 | 0.00 | 0.00 | 0.00 | 9 | 1012.7 |
| 20260506091526 | 63 | 198 | 0.9 | 1.7 | 0.00 | 0.00 | 0.00 | 9 | 1013.0 |
| 20260506091226 | 63 | 180 | 0.9 | 2.6 | 0.00 | 0.00 | 0.00 | 9 | 1012.8 |
| 20260506090926 | 63 | 0 | 0.0 | 0.0 | 0.00 | 0.00 | 0.00 | 9 | 1012.8 |
| 20260506090626 | 63 | 180 | 1.7 | 3.5 | 0.00 | 0.00 | 0.00 | 9 | 1012.7 |
| 20260506090326 | 63 | 225 | 2.6 | 3.5 | 0.00 | 0.00 | 0.00 | 9 | 1012.7 |
| 20260506085726 | 64 | 206 | 1.7 | 3.5 | 0.00 | 0.00 | 0.00 | 9 | 1012.7 |
| 20260506085426 | 64 | 0 | 0.0 | 0.0 | 0.00 | 0.00 | 0.00 | 9 | 1012.8 |
| 20260506084826 | 64 | 232 | 0.9 | 2.6 | 0.00 | 0.00 | 0.00 | 9 | 1012.8 |
| 20260506084526 | 64 | 198 | 2.6 | 4.3 | 0.00 | 0.00 | 0.00 | 9 | 1012.9 |
| 20260506084226 | 64 | 202 | 1.7 | 3.5 | 0.00 | 0.00 | 0.00 | 9 | 1012.8 |
| 20260506083926 | 64 | 0 | 0.0 | 0.0 | 0.00 | 0.00 | 0.00 | 9 | 1012.8 |
| 20260506083626 | 64 | 0 | 0.0 | 0.0 | 0.00 | 0.00 | 0.00 | 9 | 1012.8 |
| 20260506083326 | 64 | 248 | 1.7 | 3.5 | 0.00 | 0.00 | 0.00 | 9 | 1012.8 |
| 20260506083026 | 64 | 0 | 0.0 | 0.0 | 0.00 | 0.00 | 0.00 | 9 | 1012.9 |
| 20260506082726 | 64 | 202 | 0.9 | 4.3 | 0.00 | 0.00 | 0.00 | 9 | 1012.8 |
| 20260506082426 | 64 | 207 | 3.5 | 4.3 | 0.00 | 0.00 | 0.00 | 9 | 1012.7 |
| 20260506082126 | 64 | 249 | 1.7 | 2.6 | 0.00 | 0.00 | 0.00 | 9 | 1012.7 |
| 20260506081526 | 64 | 0 | 0.9 | 3.5 | 0.00 | 0.00 | 0.00 | 9 | 1012.8 |
| 20260506081226 | 64 | 205 | 0.9 | 2.6 | 0.00 | 0.00 | 0.00 | 8 | 1012.8 |
| 20260506080926 | 64 | 225 | 1.7 | 2.6 | 0.00 | 0.00 | 0.00 | 8 | 1012.8 |
| 20260506080626 | 64 | 190 | 3.5 | 6.1 | 0.00 | 0.00 | 0.00 | 8 | 1012.9 |
| 20260506080326 | 64 | 252 | 3.5 | 7.0 | 0.00 | 0.00 | 0.00 | 8 | 1012.8 |
| 20260506073327 | 64 | 250 | 4.3 | 6.1 | 0.00 | 0.00 | 0.00 | 8 | 1012.7 |
| 20260506073027 | 64 | 201 | 2.6 | 4.3 | 0.00 | 0.00 | 0.00 | 8 | 1012.7 |
| 20260506072727 | 64 | 182 | 2.6 | 4.3 | 0.00 | 0.00 | 0.00 | 8 | 1012.7 |
| 20260506072427 | 64 | 199 | 4.3 | 6.1 | 0.00 | 0.00 | 0.00 | 8 | 1012.7 |
| 20260506072127 | 64 | 206 | 2.6 | 4.3 | 0.00 | 0.00 | 0.00 | 8 | 1012.7 |
| 20260506071527 | 64 | 221 | 4.3 | 6.1 | 0.00 | 0.00 | 0.00 | 8 | 1012.9 |
| 20260506071227 | 64 | 270 | 0.9 | 2.6 | 0.00 | 0.00 | 0.00 | 8 | 1012.7 |
| 20260506070927 | 64 | 233 | 3.5 | 5.2 | 0.00 | 0.00 | 0.00 | 8 | 1012.7 |
| 20260506070627 | 64 | 301 | 3.5 | 6.1 | 0.00 | 0.00 | 0.00 | 8 | 1012.7 |
| 20260506070327 | 64 | 266 | 2.6 | 5.2 | 0.00 | 0.00 | 0.00 | 8 | 1012.8 |
| 20260506062426 | 64 | 225 | 0.0 | 2.6 | 0.00 | 0.00 | 0.00 | 8 | 1013.6 |
| 20260506062126 | 64 | 225 | 0.9 | 2.6 | 0.00 | 0.00 | 0.00 | 8 | 1013.6 |
| 20260506061526 | 63 | 0 | 0.0 | 0.0 | 0.00 | 0.00 | 0.00 | 8 | 1013.7 |
| 20260506061226 | 63 | 0 | 0.0 | 0.0 | 0.00 | 0.00 | 0.00 | 8 | 1013.8 |
| 20260506060926 | 63 | 0 | 0.0 | 0.0 | 0.00 | 0.00 | 0.00 | 8 | 1013.8 |
| 20260506060626 | 63 | 244 | 0.9 | 2.6 | 0.00 | 0.00 | 0.00 | 8 | 1013.7 |
| 20260506060326 | 63 | 0 | 0.0 | 2.6 | 0.00 | 0.00 | 0.00 | 8 | 1013.6 |
| 20260506051226 | 62 | 0 | 0.0 | 0.0 | 0.00 | 0.00 | 0.00 | 8 | 1013.9 |
| 20260506050926 | 62 | 0 | 0.0 | 0.0 | 0.00 | 0.00 | 0.00 | 8 | 1013.8 |
| 20260506050626 | 63 | 0 | 0.0 | 0.0 | 0.00 | 0.00 | 0.00 | 8 | 1013.8 |
| 20260506050326 | 63 | 254 | 0.9 | 1.7 | 0.00 | 0.00 | 0.00 | 8 | 1013.8 |
| 20260506044826 | 63 | 236 | 1.7 | 2.6 | 0.00 | 0.00 | 0.00 | 7 | 1013.3 |
| 20260506044526 | 63 | 190 | 1.7 | 2.6 | 0.00 | 0.00 | 0.00 | 7 | 1013.2 |
| 20260506044226 | 62 | 202 | 0.9 | 3.5 | 0.00 | 0.00 | 0.00 | 7 | 1013.3 |
| 20260506043926 | 62 | 0 | 0.0 | 0.0 | 0.00 | 0.00 | 0.00 | 7 | 1013.3 |
| 20260506043626 | 62 | 0 | 0.0 | 0.0 | 0.00 | 0.00 | 0.00 | 7 | 1013.3 |
| 20260506043326 | 63 | 0 | 0.0 | 0.0 | 0.00 | 0.00 | 0.00 | 7 | 1013.3 |
| 20260506043026 | 63 | 0 | 0.0 | 0.0 | 0.00 | 0.00 | 0.00 | 7 | 1013.6 |
| 20260506042726 | 63 | 0 | 0.0 | 0.0 | 0.00 | 0.00 | 0.00 | 7 | 1013.7 |
| 20260506042426 | 63 | 0 | 0.0 | 0.0 | 0.00 | 0.00 | 0.00 | 7 | 1013.8 |
| 20260506042126 | 63 | 0 | 0.0 | 0.0 | 0.00 | 0.00 | 0.00 | 7 | 1013.8 |
| 20260506041526 | 64 | 0 | 0.0 | 0.0 | 0.00 | 0.00 | 0.00 | 7 | 1013.7 |
| 20260506041226 | 64 | 0 | 0.0 | 0.0 | 0.00 | 0.00 | 0.00 | 7 | 1013.6 |
| 20260506040926 | 64 | 0 | 0.0 | 0.0 | 0.00 | 0.00 | 0.00 | 7 | 1013.7 |
| 20260506040626 | 64 | 0 | 0.0 | 0.0 | 0.00 | 0.00 | 0.00 | 7 | 1013.7 |
| 20260506040326 | 64 | 0 | 0.0 | 0.0 | 0.00 | 0.00 | 0.00 | 7 | 1013.5 |
| 20260506035726 | 65 | 0 | 0.0 | 0.0 | 0.00 | 0.00 | 0.00 | 7 | 1013.2 |
| 20260506035426 | 65 | 0 | 0.0 | 0.0 | 0.00 | 0.00 | 0.00 | 7 | 1013.3 |
| 20260506034826 | 65 | 0 | 0.0 | 0.0 | 0.00 | 0.00 | 0.00 | 7 | 1013.3 |
| 20260506034526 | 65 | 0 | 0.0 | 0.0 | 0.00 | 0.00 | 0.00 | 7 | 1013.2 |
| 20260506034226 | 65 | 211 | 0.9 | 1.7 | 0.00 | 0.00 | 0.00 | 7 | 1013.3 |
| 20260506033926 | 65 | 0 | 0.0 | 0.9 | 0.00 | 0.00 | 0.00 | 7 | 1013.3 |
| 20260506033626 | 65 | 0 | 0.0 | 1.7 | 0.00 | 0.00 | 0.00 | 7 | 1013.3 |
| 20260506033326 | 65 | 0 | 0.0 | 0.0 | 0.00 | 0.00 | 0.00 | 6 | 1013.3 |
| 20260506033026 | 66 | 0 | 0.0 | 0.0 | 0.00 | 0.00 | 0.00 | 6 | 1013.3 |
| 20260506032726 | 66 | 180 | 1.7 | 2.6 | 0.00 | 0.00 | 0.00 | 6 | 1013.3 |
| 20260506032426 | 65 | 187 | 1.7 | 4.3 | 0.00 | 0.00 | 0.00 | 6 | 1013.5 |
| 20260506032127 | 65 | 0 | 0.0 | 0.0 | 0.00 | 0.00 | 0.00 | 6 | 1013.5 |
| 20260506031527 | 65 | 200 | 1.7 | 3.5 | 0.00 | 0.00 | 0.00 | 6 | 1013.7 |
| 20260506031227 | 65 | 218 | 1.7 | 3.5 | 0.00 | 0.00 | 0.00 | 7 | 1013.7 |
| 20260506030927 | 65 | 0 | 0.0 | 0.0 | 0.00 | 0.00 | 0.00 | 6 | 1013.7 |
| 20260506030627 | 66 | 0 | 0.0 | 0.0 | 0.00 | 0.00 | 0.00 | 6 | 1013.5 |
| 20260506030327 | 66 | 0 | 0.0 | 0.0 | 0.00 | 0.00 | 0.00 | 6 | 1013.6 |
| 20260506025727 | 66 | 225 | 0.0 | 0.9 | 0.00 | 0.00 | 0.00 | 6 | 1013.5 |
| 20260506025427 | 66 | 0 | 0.0 | 0.0 | 0.00 | 0.00 | 0.00 | 6 | 1013.3 |
| 20260506024827 | 66 | 0 | 0.0 | 0.0 | 0.00 | 0.00 | 0.00 | 6 | 1013.4 |
| 20260506024527 | 67 | 0 | 0.0 | 0.0 | 0.00 | 0.00 | 0.00 | 6 | 1013.4 |
| 20260506024227 | 67 | 0 | 0.0 | 0.0 | 0.00 | 0.00 | 0.00 | 6 | 1013.5 |
| 20260506023927 | 67 | 0 | 0.0 | 0.0 | 0.00 | 0.00 | 0.00 | 6 | 1013.6 |
| 20260506023627 | 67 | 0 | 0.0 | 0.0 | 0.00 | 0.00 | 0.00 | 6 | 1013.6 |
| 20260506023327 | 67 | 0 | 0.0 | 0.0 | 0.00 | 0.00 | 0.00 | 6 | 1013.5 |
| 20260506023027 | 67 | 157 | 0.9 | 2.6 | 0.00 | 0.00 | 0.00 | 6 | 1013.6 |
| 20260506022727 | 67 | 0 | 0.0 | 0.0 | 0.00 | 0.00 | 0.00 | 6 | 1013.6 |
| 20260506022427 | 67 | 165 | 1.7 | 3.5 | 0.00 | 0.00 | 0.00 | 6 | 1013.4 |
| 20260506022127 | 67 | 0 | 0.0 | 0.0 | 0.00 | 0.00 | 0.00 | 6 | 1013.5 |
| 20260506021526 | 67 | 0 | 0.0 | 0.0 | 0.00 | 0.00 | 0.00 | 6 | 1013.4 |
| 20260506021226 | 67 | 180 | 0.0 | 0.9 | 0.00 | 0.00 | 0.00 | 6 | 1013.3 |
| 20260506020926 | 67 | 195 | 2.6 | 4.3 | 0.00 | 0.00 | 0.00 | 6 | 1013.4 |
| 20260506020626 | 67 | 157 | 0.9 | 2.6 | 0.00 | 0.00 | 0.00 | 6 | 1013.3 |
| 20260506020326 | 67 | 90 | 0.9 | 2.6 | 0.00 | 0.00 | 0.00 | 6 | 1013.3 |
| 20260506015727 | 67 | 200 | 1.7 | 3.5 | 0.00 | 0.00 | 0.00 | 6 | 1013.1 |
| 20260506015426 | 67 | 112 | 0.9 | 1.7 | 0.00 | 0.00 | 0.00 | 6 | 1013.0 |
| 20260506014826 | 68 | 0 | 0.0 | 0.0 | 0.00 | 0.00 | 0.00 | 6 | 1013.1 |
| 20260506014527 | 68 | 0 | 0.0 | 0.0 | 0.00 | 0.00 | 0.00 | 6 | 1013.0 |
| 20260506014226 | 68 | 0 | 0.0 | 0.0 | 0.00 | 0.00 | 0.00 | 6 | 1012.9 |
| 20260506013926 | 68 | 0 | 0.0 | 0.0 | 0.00 | 0.00 | 0.00 | 6 | 1012.9 |
| 20260506013626 | 68 | 0 | 0.0 | 0.0 | 0.00 | 0.00 | 0.00 | 6 | 1013.1 |
| 20260506013327 | 68 | 0 | 0.0 | 0.0 | 0.00 | 0.00 | 0.00 | 6 | 1013.2 |
| 20260506013026 | 68 | 0 | 0.0 | 0.0 | 0.00 | 0.00 | 0.00 | 6 | 1013.3 |
| 20260506012727 | 68 | 0 | 0.0 | 0.0 | 0.00 | 0.00 | 0.00 | 6 | 1013.3 |
| 20260506012426 | 68 | 270 | 0.9 | 2.6 | 0.00 | 0.00 | 0.00 | 6 | 1013.1 |
| 20260506012126 | 68 | 0 | 0.0 | 0.0 | 0.00 | 0.00 | 0.00 | 6 | 1013.1 |
| 20260506011526 | 68 | 0 | 0.0 | 0.0 | 0.00 | 0.00 | 0.00 | 6 | 1013.0 |
| 20260506011226 | 68 | 202 | 0.9 | 2.6 | 0.00 | 0.00 | 0.00 | 6 | 1012.9 |
| 20260506010926 | 69 | 0 | 0.0 | 0.0 | 0.00 | 0.00 | 0.00 | 6 | 1012.9 |
| 20260506010626 | 69 | 202 | 0.9 | 3.5 | 0.00 | 0.00 | 0.00 | 6 | 1012.9 |
| 20260506010326 | 69 | 0 | 0.0 | 0.0 | 0.00 | 0.00 | 0.00 | 6 | 1012.8 |
| 20260506005726 | 69 | 0 | 0.0 | 1.7 | 0.00 | 0.00 | 0.00 | 6 | 1012.7 |
| 20260506005426 | 70 | 210 | 1.7 | 2.6 | 0.00 | 0.00 | 0.00 | 6 | 1012.7 |
| 20260506004826 | 70 | 0 | 0.0 | 0.0 | 0.00 | 0.00 | 0.00 | 6 | 1012.7 |
| 20260506004526 | 70 | 0 | 0.9 | 2.6 | 0.00 | 0.00 | 0.00 | 6 | 1012.7 |
| 20260506004226 | 70 | 0 | 0.0 | 0.0 | 0.00 | 0.00 | 0.00 | 6 | 1012.6 |
| 20260506003926 | 70 | 0 | 0.0 | 0.0 | 0.00 | 0.00 | 0.00 | 6 | 1012.6 |
| 20260506003626 | 70 | 188 | 1.7 | 5.2 | 0.00 | 0.00 | 0.00 | 6 | 1012.7 |
| 20260506003326 | 70 | 165 | 0.9 | 3.5 | 0.00 | 0.00 | 0.00 | 6 | 1012.7 |
| 20260506003026 | 71 | 0 | 0.0 | 0.0 | 0.00 | 0.00 | 0.00 | 6 | 1012.8 |
| 20260506002726 | 71 | 225 | 0.0 | 2.6 | 0.00 | 0.00 | 0.00 | 6 | 1012.8 |
| 20260506002426 | 71 | 0 | 0.0 | 0.0 | 0.00 | 0.00 | 0.00 | 6 | 1012.8 |
| 20260506002126 | 71 | 0 | 0.0 | 0.0 | 0.00 | 0.00 | 0.00 | 6 | 1012.9 |
| 20260506001526 | 71 | 135 | 0.9 | 4.3 | 0.00 | 0.00 | 0.00 | 6 | 1012.9 |
| 20260506001226 | 71 | 0 | 0.0 | 0.0 | 0.00 | 0.00 | 0.00 | 5 | 1012.9 |
| 20260506000926 | 71 | 225 | 1.7 | 3.5 | 0.00 | 0.00 | 0.00 | 5 | 1012.9 |
| 20260506000626 | 72 | 213 | 2.6 | 3.5 | 0.00 | 0.00 | 0.00 | 5 | 1013.0 |
| 20260506000327 | 72 | 157 | 0.0 | 1.7 | 0.00 | 0.00 | 0.00 | 5 | 1013.0 |
| 20260505235726 | 72 | 0 | 0.0 | 0.0 | 0.00 | 0.00 | 0.00 | 5 | 1013.0 |
| 20260505235426 | 72 | 106 | 1.7 | 3.5 | 0.00 | 0.00 | 0.00 | 5 | 1012.9 |
| 20260505234826 | 72 | 205 | 1.7 | 3.5 | 0.00 | 0.00 | 0.00 | 5 | 1012.9 |
| 20260505234526 | 73 | 193 | 3.5 | 6.1 | 0.00 | 0.00 | 0.00 | 5 | 1012.8 |
| 20260505234226 | 73 | 0 | 0.0 | 0.0 | 0.00 | 0.00 | 0.00 | 5 | 1012.8 |
| 20260505233926 | 73 | 185 | 1.7 | 4.3 | 0.00 | 0.00 | 0.00 | 5 | 1012.8 |
| 20260505233626 | 73 | 188 | 1.7 | 5.2 | 0.00 | 0.00 | 0.00 | 5 | 1012.8 |
| 20260505233326 | 73 | 180 | 0.9 | 3.5 | 0.00 | 0.00 | 0.00 | 5 | 1012.8 |
| 20260505233026 | 73 | 202 | 3.5 | 6.1 | 0.00 | 0.00 | 0.00 | 5 | 1012.9 |
| 20260505232726 | 73 | 247 | 1.7 | 3.5 | 0.00 | 0.00 | 0.00 | 5 | 1012.9 |
| 20260505232426 | 74 | 180 | 4.3 | 8.7 | 0.00 | 0.00 | 0.00 | 5 | 1012.9 |
| 20260505232126 | 75 | 209 | 5.2 | 7.8 | 0.00 | 0.00 | 0.00 | 5 | 1012.9 |
| 20260505231526 | 75 | 145 | 0.9 | 4.3 | 0.00 | 0.00 | 0.00 | 5 | 1012.8 |
| 20260505231226 | 75 | 235 | 3.5 | 5.2 | 0.00 | 0.00 | 0.00 | 5 | 1012.9 |
| 20260505230926 | 75 | 185 | 1.7 | 5.2 | 0.00 | 0.00 | 0.00 | 5 | 1012.9 |
| 20260505230626 | 75 | 192 | 4.3 | 5.2 | 0.00 | 0.00 | 0.00 | 5 | 1012.9 |
| 20260505230327 | 76 | 192 | 4.3 | 7.8 | 0.00 | 0.00 | 0.00 | 5 | 1012.8 |
| 20260505225727 | 76 | 213 | 3.5 | 7.8 | 0.00 | 0.00 | 0.00 | 4 | 1012.6 |
| 20260505225427 | 76 | 180 | 3.5 | 6.1 | 0.00 | 0.00 | 0.00 | 4 | 1012.6 |
| 20260505224827 | 76 | 254 | 2.6 | 7.0 | 0.00 | 0.00 | 0.00 | 4 | 1012.5 |
| 20260505224527 | 76 | 180 | 2.6 | 6.1 | 0.00 | 0.00 | 0.00 | 4 | 1012.5 |
| 20260505224227 | 76 | 0 | 0.0 | 0.0 | 0.00 | 0.00 | 0.00 | 4 | 1012.3 |
| 20260505223927 | 76 | 337 | 0.9 | 5.2 | 0.00 | 0.00 | 0.00 | 4 | 1012.3 |
| 20260505223627 | 76 | 202 | 1.7 | 3.5 | 0.00 | 0.00 | 0.00 | 4 | 1012.1 |
| 20260505223327 | 76 | 195 | 6.1 | 9.6 | 0.00 | 0.00 | 0.00 | 4 | 1012.1 |
| 20260505223027 | 77 | 232 | 6.1 | 10.4 | 0.00 | 0.00 | 0.00 | 4 | 1012.1 |
| 20260505222727 | 77 | 194 | 4.3 | 7.0 | 0.00 | 0.00 | 0.00 | 4 | 1012.1 |
| 20260505222427 | 78 | 202 | 3.5 | 7.8 | 0.00 | 0.00 | 0.00 | 4 | 1012.2 |
| 20260505222127 | 78 | 112 | 0.9 | 1.7 | 0.00 | 0.00 | 0.00 | 4 | 1012.2 |
| 20260505221527 | 77 | 202 | 3.5 | 4.3 | 0.00 | 0.00 | 0.00 | 4 | 1012.2 |
| 20260505221227 | 77 | 196 | 6.1 | 8.7 | 0.00 | 0.00 | 0.00 | 4 | 1012.2 |
| 20260505220927 | 78 | 226 | 3.5 | 9.6 | 0.00 | 0.00 | 0.00 | 4 | 1012.2 |
| 20260505220627 | 77 | 250 | 5.2 | 7.8 | 0.00 | 0.00 | 0.00 | 4 | 1012.3 |
| 20260505220327 | 76 | 154 | 2.6 | 5.2 | 0.00 | 0.00 | 0.00 | 4 | 1012.3 |
| 20260505215727 | 76 | 256 | 4.3 | 8.7 | 0.00 | 0.00 | 0.00 | 4 | 1012.4 |
| 20260505215426 | 75 | 191 | 7.8 | 8.7 | 0.00 | 0.00 | 0.00 | 4 | 1012.4 |
| 20260505214826 | 76 | 202 | 1.7 | 6.1 | 0.00 | 0.00 | 0.00 | 4 | 1012.3 |
| 20260505214526 | 76 | 242 | 2.6 | 6.1 | 0.00 | 0.00 | 0.00 | 4 | 1012.2 |
| 20260505214227 | 77 | 198 | 0.9 | 3.5 | 0.00 | 0.00 | 0.00 | 4 | 1012.2 |
| 20260505213926 | 77 | 276 | 2.6 | 5.2 | 0.00 | 0.00 | 0.00 | 4 | 1012.3 |
| 20260505213626 | 77 | 202 | 1.7 | 3.5 | 0.00 | 0.00 | 0.00 | 4 | 1012.2 |
| 20260505213326 | 76 | 231 | 5.2 | 7.8 | 0.00 | 0.00 | 0.00 | 4 | 1012.2 |
| 20260505213026 | 77 | 225 | 2.6 | 3.5 | 0.00 | 0.00 | 0.00 | 4 | 1012.2 |
| 20260505212726 | 77 | 208 | 4.3 | 7.0 | 0.00 | 0.00 | 0.00 | 4 | 1012.2 |
| 20260505212426 | 77 | 210 | 6.1 | 8.7 | 0.00 | 0.00 | 0.00 | 4 | 1012.3 |
| 20260505212126 | 77 | 186 | 3.5 | 5.2 | 0.00 | 0.00 | 0.00 | 4 | 1012.4 |
| 20260505211526 | 77 | 180 | 1.7 | 3.5 | 0.00 | 0.00 | 0.00 | 4 | 1012.2 |
| 20260505211229 | 77 | 202 | 7.0 | 10.4 | 0.00 | 0.00 | 0.00 | 4 | 1012.2 |
| 20260505210926 | 77 | 225 | 1.7 | 2.6 | 0.00 | 0.00 | 0.00 | 4 | 1012.3 |
| 20260505210626 | 76 | 180 | 1.7 | 4.3 | 0.00 | 0.00 | 0.00 | 4 | 1012.5 |
| 20260505210326 | 77 | 171 | 7.0 | 7.8 | 0.00 | 0.00 | 0.00 | 4 | 1012.6 |
| 20260505205726 | 77 | 215 | 6.1 | 8.7 | 0.00 | 0.00 | 0.00 | 4 | 1012.5 |
| 20260505205426 | 77 | 226 | 4.3 | 8.7 | 0.00 | 0.00 | 0.00 | 4 | 1012.4 |
| 20260505204826 | 77 | 230 | 6.1 | 7.8 | 0.00 | 0.00 | 0.00 | 4 | 1012.5 |
| 20260505204526 | 77 | 185 | 5.2 | 7.8 | 0.00 | 0.00 | 0.00 | 4 | 1012.6 |
| 20260505204226 | 77 | 221 | 3.5 | 7.0 | 0.00 | 0.00 | 0.00 | 4 | 1012.6 |
| 20260505203926 | 77 | 116 | 3.5 | 5.2 | 0.00 | 0.00 | 0.00 | 4 | 1012.6 |
| 20260505203626 | 77 | 249 | 2.6 | 6.1 | 0.00 | 0.00 | 0.00 | 4 | 1012.7 |
| 20260505203326 | 77 | 182 | 4.3 | 7.0 | 0.00 | 0.00 | 0.00 | 4 | 1012.7 |
| 20260505203026 | 77 | 152 | 7.0 | 10.4 | 0.00 | 0.00 | 0.00 | 4 | 1012.8 |
| 20260505202726 | 77 | 187 | 2.6 | 5.2 | 0.00 | 0.00 | 0.00 | 4 | 1012.8 |
| 20260505202426 | 76 | 249 | 5.2 | 10.4 | 0.00 | 0.00 | 0.00 | 4 | 1013.0 |
| 20260505202126 | 76 | 186 | 7.0 | 9.6 | 0.00 | 0.00 | 0.00 | 4 | 1013.0 |
| 20260505201526 | 77 | 202 | 0.9 | 4.3 | 0.00 | 0.00 | 0.00 | 4 | 1012.9 |
| 20260505201226 | 77 | 157 | 2.6 | 6.1 | 0.00 | 0.00 | 0.00 | 4 | 1013.0 |
| 20260505200926 | 76 | 241 | 3.5 | 7.0 | 0.00 | 0.00 | 0.00 | 4 | 1013.1 |
| 20260505200626 | 77 | 135 | 0.9 | 2.6 | 0.00 | 0.00 | 0.00 | 4 | 1013.1 |
| 20260505200326 | 76 | 180 | 1.7 | 5.2 | 0.00 | 0.00 | 0.00 | 4 | 1013.1 |
| 20260505195726 | 77 | 196 | 2.6 | 4.3 | 0.00 | 0.00 | 0.00 | 4 | 1013.3 |
| 20260505195426 | 77 | 166 | 5.2 | 10.4 | 0.00 | 0.00 | 0.00 | 4 | 1013.3 |
| 20260505194826 | 77 | 194 | 1.7 | 4.3 | 0.00 | 0.00 | 0.00 | 4 | 1013.3 |
| 20260505194526 | 77 | 105 | 3.5 | 6.1 | 0.00 | 0.00 | 0.00 | 4 | 1013.3 |
| 20260505194226 | 77 | 243 | 3.5 | 7.0 | 0.00 | 0.00 | 0.00 | 4 | 1013.4 |
| 20260505193926 | 77 | 225 | 1.7 | 5.2 | 0.00 | 0.00 | 0.00 | 4 | 1013.4 |
| 20260505193626 | 77 | 61 | 1.7 | 4.3 | 0.00 | 0.00 | 0.00 | 4 | 1013.5 |
| 20260505193326 | 76 | 177 | 2.6 | 3.5 | 0.00 | 0.00 | 0.00 | 4 | 1013.5 |
| 20260505193026 | 76 | 120 | 4.3 | 9.6 | 0.00 | 0.00 | 0.00 | 4 | 1013.5 |
| 20260505192726 | 77 | 194 | 2.6 | 4.3 | 0.00 | 0.00 | 0.00 | 4 | 1013.4 |
| 20260505192426 | 76 | 181 | 4.3 | 7.8 | 0.00 | 0.00 | 0.00 | 4 | 1013.5 |
| 20260505192126 | 77 | 233 | 1.7 | 3.5 | 0.00 | 0.00 | 0.00 | 4 | 1013.5 |
| 20260505191526 | 76 | 236 | 4.3 | 7.8 | 0.00 | 0.00 | 0.00 | 4 | 1013.7 |
| 20260505191226 | 76 | 180 | 2.6 | 3.5 | 0.00 | 0.00 | 0.00 | 4 | 1013.8 |
| 20260505190926 | 76 | 142 | 5.2 | 8.7 | 0.00 | 0.00 | 0.00 | 4 | 1013.9 |
| 20260505190626 | 76 | 233 | 6.1 | 7.8 | 0.00 | 0.00 | 0.00 | 4 | 1013.9 |
| 20260505190326 | 76 | 203 | 2.6 | 6.1 | 0.00 | 0.00 | 0.00 | 4 | 1013.9 |
| 20260505185726 | 76 | 194 | 2.6 | 4.3 | 0.00 | 0.00 | 0.00 | 4 | 1013.9 |
| 20260505185426 | 75 | 194 | 8.7 | 11.3 | 0.00 | 0.00 | 0.00 | 4 | 1013.9 |
| 20260505184826 | 75 | 166 | 3.5 | 6.1 | 0.00 | 0.00 | 0.00 | 4 | 1013.9 |
| 20260505184526 | 75 | 298 | 1.7 | 6.1 | 0.00 | 0.00 | 0.00 | 4 | 1013.9 |
| 20260505184226 | 75 | 198 | 5.2 | 8.7 | 0.00 | 0.00 | 0.00 | 4 | 1014.0 |
| 20260505183927 | 76 | 237 | 6.1 | 8.7 | 0.00 | 0.00 | 0.00 | 4 | 1014.0 |
| 20260505183627 | 76 | 229 | 5.2 | 10.4 | 0.00 | 0.00 | 0.00 | 4 | 1014.1 |
| 20260505183327 | 76 | 202 | 4.3 | 5.2 | 0.00 | 0.00 | 0.00 | 4 | 1014.0 |
| 20260505183027 | 75 | 258 | 3.5 | 4.3 | 0.00 | 0.00 | 0.00 | 4 | 1014.2 |
| 20260505182727 | 75 | 207 | 7.0 | 9.6 | 0.00 | 0.00 | 0.00 | 4 | 1014.3 |
| 20260505182427 | 75 | 231 | 6.1 | 9.6 | 0.00 | 0.00 | 0.00 | 4 | 1014.3 |
| 20260505182127 | 76 | 231 | 4.3 | 7.8 | 0.00 | 0.00 | 0.00 | 4 | 1014.3 |
| 20260505181527 | 75 | 150 | 1.7 | 4.3 | 0.00 | 0.00 | 0.00 | 4 | 1014.4 |
| 20260505181227 | 75 | 224 | 3.5 | 6.1 | 0.00 | 0.00 | 0.00 | 4 | 1014.5 |
| 20260505180927 | 75 | 195 | 3.5 | 6.1 | 0.00 | 0.00 | 0.00 | 4 | 1014.6 |
| 20260505180627 | 75 | 188 | 6.1 | 7.8 | 0.00 | 0.00 | 0.00 | 4 | 1014.6 |
| 20260505180327 | 75 | 210 | 1.7 | 4.3 | 0.00 | 0.00 | 0.00 | 4 | 1014.6 |
| 20260505175727 | 75 | 174 | 4.3 | 9.6 | 0.00 | 0.00 | 0.00 | 4 | 1014.7 |
| 20260505175427 | 75 | 180 | 3.5 | 7.0 | 0.00 | 0.00 | 0.00 | 5 | 1014.6 |
| 20260505174827 | 75 | 224 | 2.6 | 7.0 | 0.00 | 0.00 | 0.00 | 5 | 1014.8 |
| 20260505174527 | 75 | 241 | 3.5 | 6.1 | 0.00 | 0.00 | 0.00 | 4 | 1014.8 |
| 20260505174227 | 75 | 197 | 1.7 | 6.1 | 0.00 | 0.00 | 0.00 | 5 | 1014.9 |
| 20260505173927 | 75 | 0 | 0.0 | 1.7 | 0.00 | 0.00 | 0.00 | 5 | 1014.9 |
| 20260505173627 | 75 | 158 | 4.3 | 7.0 | 0.00 | 0.00 | 0.00 | 4 | 1015.0 |
| 20260505173326 | 75 | 204 | 5.2 | 7.8 | 0.00 | 0.00 | 0.00 | 4 | 1015.0 |
| 20260505173026 | 75 | 180 | 5.2 | 9.6 | 0.00 | 0.00 | 0.00 | 4 | 1015.2 |
| 20260505172726 | 74 | 193 | 6.1 | 9.6 | 0.00 | 0.00 | 0.00 | 4 | 1015.3 |
| 20260505172426 | 75 | 203 | 6.1 | 7.8 | 0.00 | 0.00 | 0.00 | 5 | 1015.1 |
| 20260505172127 | 75 | 182 | 6.1 | 8.7 | 0.00 | 0.00 | 0.00 | 5 | 1015.1 |
| 20260505171526 | 75 | 184 | 4.3 | 9.6 | 0.00 | 0.00 | 0.00 | 5 | 1015.1 |
| 20260505171226 | 76 | 236 | 4.3 | 8.7 | 0.00 | 0.00 | 0.00 | 4 | 1015.1 |
| 20260505170926 | 76 | 190 | 4.3 | 7.8 | 0.00 | 0.00 | 0.00 | 5 | 1015.1 |
| 20260505170626 | 75 | 0 | 0.9 | 2.6 | 0.00 | 0.00 | 0.00 | 5 | 1015.1 |
| 20260505170326 | 75 | 147 | 2.6 | 4.3 | 0.00 | 0.00 | 0.00 | 5 | 1015.1 |
| 20260505165726 | 75 | 232 | 3.5 | 6.1 | 0.00 | 0.00 | 0.00 | 5 | 1015.1 |
| 20260505165426 | 75 | 259 | 1.7 | 3.5 | 0.00 | 0.00 | 0.00 | 5 | 1015.1 |
| 20260505164826 | 75 | 219 | 5.2 | 13.9 | 0.00 | 0.00 | 0.00 | 5 | 1015.3 |
| 20260505164526 | 75 | 263 | 2.6 | 5.2 | 0.00 | 0.00 | 0.00 | 5 | 1015.3 |
| 20260505164226 | 74 | 210 | 7.8 | 10.4 | 0.00 | 0.00 | 0.00 | 5 | 1015.3 |
| 20260505163926 | 74 | 244 | 3.5 | 6.1 | 0.00 | 0.00 | 0.00 | 5 | 1015.3 |
| 20260505163626 | 75 | 147 | 5.2 | 8.7 | 0.00 | 0.00 | 0.00 | 4 | 1015.3 |
| 20260505163326 | 75 | 171 | 6.1 | 7.8 | 0.00 | 0.00 | 0.00 | 4 | 1015.3 |
| 20260505163026 | 75 | 220 | 2.6 | 5.2 | 0.00 | 0.00 | 0.00 | 5 | 1015.2 |
| 20260505162726 | 74 | 231 | 7.0 | 9.6 | 0.00 | 0.00 | 0.00 | 5 | 1015.2 |
| 20260505162426 | 75 | 202 | 6.1 | 10.4 | 0.00 | 0.00 | 0.00 | 4 | 1015.1 |
| 20260505162126 | 75 | 164 | 3.5 | 4.3 | 0.00 | 0.00 | 0.00 | 4 | 1015.1 |
| 20260505161526 | 74 | 201 | 6.1 | 10.4 | 0.00 | 0.00 | 0.00 | 4 | 1015.1 |
| 20260505161226 | 74 | 143 | 5.2 | 9.6 | 0.00 | 0.00 | 0.00 | 5 | 1015.2 |
| 20260505160926 | 73 | 222 | 7.8 | 10.4 | 0.00 | 0.00 | 0.00 | 4 | 1015.3 |
| 20260505160626 | 74 | 171 | 6.1 | 11.3 | 0.00 | 0.00 | 0.00 | 5 | 1015.1 |
| 20260505160326 | 74 | 198 | 6.1 | 11.3 | 0.00 | 0.00 | 0.00 | 5 | 1015.1 |
| 20260505153326 | 72 | 171 | 6.1 | 9.6 | 0.00 | 0.00 | 0.00 | 5 | 1015.6 |
| 20260505153026 | 73 | 243 | 3.5 | 8.7 | 0.00 | 0.00 | 0.00 | 5 | 1015.7 |
| 20260505152726 | 73 | 197 | 4.3 | 7.0 | 0.00 | 0.00 | 0.00 | 5 | 1015.7 |
| 20260505152426 | 72 | 230 | 3.5 | 7.8 | 0.00 | 0.00 | 0.00 | 5 | 1015.7 |
| 20260505152126 | 72 | 191 | 8.7 | 13.9 | 0.00 | 0.00 | 0.00 | 5 | 1015.8 |
| 20260505151526 | 73 | 213 | 3.5 | 5.2 | 0.00 | 0.00 | 0.00 | 5 | 1015.6 |
| 20260505151226 | 73 | 147 | 7.0 | 10.4 | 0.00 | 0.00 | 0.00 | 5 | 1015.4 |
| 20260505150926 | 73 | 189 | 3.5 | 5.2 | 0.00 | 0.00 | 0.00 | 5 | 1015.5 |
| 20260505150626 | 73 | 234 | 6.1 | 10.4 | 0.00 | 0.00 | 0.00 | 5 | 1015.5 |
| 20260505150326 | 73 | 198 | 7.8 | 10.4 | 0.00 | 0.00 | 0.00 | 5 | 1015.5 |
| 20260505140627 | 70 | 0 | 0.0 | 1.7 | 0.00 | 0.00 | 0.00 | 6 | 1015.4 |
| 20260505140327 | 70 | 270 | 0.9 | 1.7 | 0.00 | 0.00 | 0.00 | 7 | 1015.4 |
| 20260505124826 | 60 | 0 | 0.0 | 0.0 | 0.00 | 0.00 | 0.00 | 8 | 1015.8 |
| 20260505124526 | 59 | 0 | 0.0 | 0.0 | 0.00 | 0.00 | 0.00 | 8 | 1015.9 |
| 20260505124226 | 57 | 0 | 0.0 | 0.0 | 0.00 | 0.00 | 0.00 | 8 | 1016.0 |
| 20260505123926 | 56 | 0 | 0.0 | 0.0 | 0.00 | 0.00 | 0.00 | 9 | 1016.1 |
| 20260505123626 | 54 | 0 | 0.0 | 0.0 | 0.00 | 0.00 | 0.00 | 9 | 1016.2 |
| 20260505123326 | 54 | 0 | 0.0 | 0.0 | 0.00 | 0.00 | 0.00 | 9 | 1016.3 |
| 20260505123026 | 53 | 0 | 0.0 | 0.0 | 0.00 | 0.00 | 0.00 | 9 | 1016.3 |
| 20260505122726 | 53 | 0 | 0.0 | 0.0 | 0.00 | 0.00 | 0.00 | 9 | 1016.3 |
| 20260505122426 | 53 | 0 | 0.0 | 0.0 | 0.00 | 0.00 | 0.00 | 9 | 1016.2 |
| 20260505122126 | 53 | 0 | 0.0 | 0.0 | 0.00 | 0.00 | 0.00 | 9 | 1016.2 |
| 20260505121526 | 53 | 0 | 0.0 | 0.0 | 0.00 | 0.00 | 0.00 | 9 | 1016.0 |
| 20260505121226 | 52 | 0 | 0.0 | 0.0 | 0.00 | 0.00 | 0.00 | 9 | 1016.1 |
| 20260505120926 | 52 | 0 | 0.0 | 0.0 | 0.00 | 0.00 | 0.00 | 9 | 1016.1 |
| 20260505120626 | 52 | 0 | 0.0 | 0.0 | 0.00 | 0.00 | 0.00 | 9 | 1016.2 |
| 20260505120326 | 52 | 0 | 0.0 | 0.0 | 0.00 | 0.00 | 0.00 | 9 | 1016.2 |
| 20260505115726 | 51 | 0 | 0.0 | 0.0 | 0.00 | 0.00 | 0.00 | 9 | 1016.1 |
| 20260505115426 | 51 | 0 | 0.0 | 0.0 | 0.00 | 0.00 | 0.00 | 9 | 1016.2 |
| 20260505114826 | 51 | 0 | 0.0 | 0.0 | 0.00 | 0.00 | 0.00 | 9 | 1016.2 |
| 20260505114526 | 51 | 0 | 0.0 | 0.0 | 0.00 | 0.00 | 0.00 | 9 | 1016.1 |
| 20260505114226 | 51 | 0 | 0.0 | 0.0 | 0.00 | 0.00 | 0.00 | 9 | 1016.1 |
| 20260505113926 | 51 | 0 | 0.0 | 0.0 | 0.00 | 0.00 | 0.00 | 9 | 1016.0 |
| 20260505113626 | 51 | 0 | 0.0 | 0.0 | 0.00 | 0.00 | 0.00 | 9 | 1015.8 |
| 20260505113326 | 51 | 0 | 0.0 | 0.0 | 0.00 | 0.00 | 0.00 | 9 | 1015.8 |
| 20260505113026 | 51 | 247 | 0.9 | 3.5 | 0.00 | 0.00 | 0.00 | 9 | 1015.7 |
| 20260505112726 | 51 | 202 | 0.0 | 1.7 | 0.00 | 0.00 | 0.00 | 9 | 1015.7 |
| 20260505112426 | 51 | 0 | 0.0 | 1.7 | 0.00 | 0.00 | 0.00 | 9 | 1015.6 |
| 20260505112126 | 51 | 0 | 0.0 | 0.0 | 0.00 | 0.00 | 0.00 | 9 | 1015.6 |
| 20260505111526 | 51 | 0 | 0.0 | 0.0 | 0.00 | 0.00 | 0.00 | 9 | 1015.7 |
| 20260505111226 | 51 | 0 | 0.0 | 0.0 | 0.00 | 0.00 | 0.00 | 9 | 1015.7 |
| 20260505110926 | 51 | 0 | 0.0 | 0.0 | 0.00 | 0.00 | 0.00 | 9 | 1015.7 |
| 20260505110626 | 51 | 202 | 0.9 | 2.6 | 0.00 | 0.00 | 0.00 | 8 | 1015.7 |
| 20260505110326 | 52 | 0 | 0.0 | 0.0 | 0.00 | 0.00 | 0.00 | 8 | 1015.7 |
| 20260505102126 | 51 | 0 | 0.0 | 0.0 | 0.00 | 0.00 | 0.00 | 8 | 1015.6 |
| 20260505101526 | 51 | 215 | 1.7 | 3.5 | 0.00 | 0.00 | 0.00 | 9 | 1015.6 |
| 20260505101226 | 50 | 0 | 0.0 | 0.0 | 0.00 | 0.00 | 0.00 | 9 | 1015.7 |
| 20260505100926 | 50 | 0 | 0.0 | 0.0 | 0.00 | 0.00 | 0.00 | 9 | 1015.7 |
| 20260505100626 | 50 | 0 | 0.0 | 0.0 | 0.00 | 0.00 | 0.00 | 9 | 1015.8 |
| 20260505100326 | 50 | 0 | 0.0 | 0.0 | 0.00 | 0.00 | 0.00 | 9 | 1015.8 |
| 20260505095727 | 50 | 0 | 0.0 | 0.0 | 0.00 | 0.00 | 0.00 | 9 | 1015.9 |
| 20260505095427 | 50 | 0 | 0.0 | 0.0 | 0.00 | 0.00 | 0.00 | 9 | 1015.8 |
| 20260505094827 | 50 | 0 | 0.0 | 0.0 | 0.00 | 0.00 | 0.00 | 9 | 1015.8 |
| 20260505094527 | 50 | 0 | 0.0 | 0.0 | 0.00 | 0.00 | 0.00 | 9 | 1015.9 |
| 20260505094227 | 50 | 0 | 0.0 | 0.0 | 0.00 | 0.00 | 0.00 | 9 | 1015.8 |
| 20260505093927 | 50 | 0 | 0.0 | 0.0 | 0.00 | 0.00 | 0.00 | 9 | 1015.8 |
| 20260505093627 | 49 | 0 | 0.0 | 0.0 | 0.00 | 0.00 | 0.00 | 9 | 1015.9 |
| 20260505093327 | 49 | 0 | 0.0 | 0.0 | 0.00 | 0.00 | 0.00 | 9 | 1015.9 |
| 20260505093027 | 48 | 0 | 0.0 | 0.0 | 0.00 | 0.00 | 0.00 | 9 | 1015.9 |
| 20260505092727 | 48 | 0 | 0.0 | 0.0 | 0.00 | 0.00 | 0.00 | 9 | 1016.0 |